Regional Weather Roundup
Issued by NWS

Home | Current Version | Previous Version | Graphics & Text | Print | Product List | Glossary Off
Versions: 1 2 3 4 5 6 7 8 9 10 11 12 13 14 15 16 17 18 19 20 21 22 23 24 25 26 27 28 29 30 31 32 33 34 35 36 37 38 39 40 41 42 43 44 45 46 47 48 49 50

000
ASUS43 KDTX 250810
RWRMI
MICHIGAN HOURLY REGIONAL WEATHER ROUNDUP
NATIONAL WEATHER SERVICE DETROIT/PONTIAC MI
400 AM EDT SAT OCT 25 2014

NOTE: "FAIR" INDICATES FEW OR NO CLOUDS BELOW 12,000 FEET WITH NO
SIGNIFICANT WEATHER AND/OR OBSTRUCTION TO VISIBILITY.

MIZ047>049-052>055-059>063-066>070-074>076-081>083-250900-
SOUTHEAST LOWER MICHIGAN

CITY           SKY/WX    TMP DP  RH WIND       PRES   REMARKS
ADRIAN         MOCLDY    46  45  96 W6        29.92F FOG
ALMA           PTCLDY    46  45  97 S5        29.85F FOG
ANN ARBOR      FOG       37  35  92 SW3       29.90F VSB 1/2
BAD AXE        PTCLDY    45  45 100 SW6       29.84F FOG
CARO           FOG       41  41  99 S5        29.85F VSB 1/4
DETROIT CITY   PTCLDY    51  45  79 SW7       29.89F
DETROIT        MOCLDY    45  43  93 S6        29.90F FOG
FLINT          MOCLDY    48  45  89 S6        29.88F FOG
GROSSE ILE     MOCLDY    52  46  82 SW5       29.89F
HILLSDALE      MOCLDY    52  52  99 SW5       29.91F
HOWELL         MOCLDY    46  46  98 S6        29.88F FOG

CITY           SKY/WX    TMP DP  RH WIND       PRES   REMARKS
JACKSON        MOCLDY    48  46  93 SW7       29.90F FOG
LAMBERTVILLE   MOCLDY    50  46  87 SW3       29.92F FOG
LANSING        PTCLDY    49  46  90 S9        29.88F FOG
LAPEER         FAIR      46  44  94 CALM      29.87F FOG
MASON          MOCLDY    45  44  97 CALM      29.89F FOG
MONROE         MOCLDY    48  46  93 SW3       29.90F FOG
MT. CLEMENS    PTCLDY    50  48  93 SW8       29.87F
PONTIAC        MOCLDY    44  42  93 CALM      29.89F FOG
PORT HOPE        N/A     48  46  93 SW7       29.82F
PORT HURON     PTCLDY    46  46 100 CALM      29.88F FOG
TRI CITIES     PTCLDY    48  45  89 SW7       29.85F FOG
TROY           MOCLDY    49  46  87 SW5       29.90F FOG
SAGINAW HB     PTCLDY    46  46 100 S6        29.84F FOG
$$
MIZ043>046-050>051-056>058-064>065-071>073-077>080-250900-
SOUTHWEST LOWER MICHIGAN

CITY           SKY/WX    TMP DP  RH WIND       PRES   REMARKS
BATTLE CREEK   CLOUDY    51  48  89 S8        29.89F
BENTON HARBOR  PTCLDY    53  48  83 SW5       29.89F
BIG RAPIDS     CLOUDY    46  46 100 CALM      29.82F FOG
COLDWATER      CLOUDY    53  51  93 SW5       29.91F
FREMONT        CLOUDY    50  49  97 S6        29.83F FOG
HOLLAND        CLOUDY    58  50  75 SW9       29.87F
GRAND RAPIDS   CLOUDY    53  49  86 S6        29.86F FOG
IONIA          CLOUDY    51  48  89 SW9       29.85F
KALAMAZOO      CLOUDY    52  49  89 S6        29.89F FOG
LUDINGTON      CLOUDY    55  50  86 SW10      29.82S
MARSHALL       MOCLDY    48  47  94 S5        29.89F
MOUNT PLEASANT   N/A     42  41  97 SE3       29.82F FOG
MUSKEGON       CLOUDY    58  51  78 SW12      29.84F
SOUTH HAVEN    MOCLDY    57  50  76 SW6       29.88F
$$
MIZ016>042-250900-
NORTHERN LOWER MICHIGAN

CITY           SKY/WX    TMP DP  RH WIND       PRES   REMARKS
ALPENA         MOCLDY    46  44  93 SW3       29.76F
BEAVER ISLAND  CLOUDY    53  51  95 SW13G22   29.72F FOG
BELLAIRE       CLOUDY    51  47  86 CALM      29.78F
CADILLAC       CLOUDY    47  47  99 SW8       29.81S FOG
CHARLEVOIX     CLOUDY    53  50  90 SW9       29.78F
FRANKFORT      CLOUDY    54  49  81 SW8       29.80F
GAYLORD        CLOUDY    48  45  89 SW12      29.77F
GRAYLING       CLOUDY    49  47  93 SW3       29.80F
HARBOR SPRINGS CLOUDY    53  49  84 SW7       29.74F
HOUGHTON LAKE  MOCLDY    47  45  93 SW6       29.82F
MANISTEE       CLOUDY    52  46  82 CALM      29.83R
OSCODA         PTCLDY    44  44  99 SW5       29.81S FOG
PELLSTON       CLOUDY    53  48  83 W12G22    29.73F
ROGERS CITY    CLOUDY    48  46  93 SW9G16    29.74F
TRAVERSE CITY  CLOUDY    54  47  77 VRB5      29.77F
$$
MIZ007>008-015-250900-
EASTERN UPPER MICHIGAN

CITY           SKY/WX    TMP DP  RH WIND       PRES   REMARKS
KINROSS        CLOUDY    52  52 100 SW8G16    29.69F
MACKINAC ISLAN CLOUDY    52  50  93 SW15G21   29.71F
NEWBERRY       CLOUDY    50  49  98 SW18      29.68F FOG
S. S. MARIE    CLOUDY    51  48  89 SW7       29.67F
MUNISING         N/A     54  48  80 SW12G20   29.66F
$$
MIZ004>006-011>014-085-250900-
CENTRAL UPPER MICHIGAN

CITY           SKY/WX    TMP DP  RH WIND       PRES   REMARKS
MANISTIQUE     CLOUDY    50  49  99 SW6       29.71F FOG
ESCANABA       PTCLDY    48  46  93 W7        29.72R
MENOMINEE      PTCLDY    54  50  87 W5        29.75F
SAWYER-GWINN   CLEAR     50  47  91 SW9       29.68F
$$
MIZ001>003-009>011-084-250900-
WESTERN UPPER MICHIGAN

CITY           SKY/WX    TMP DP  RH WIND       PRES   REMARKS
IRON MOUNTAIN  CLEAR     54  49  83 W7        29.74S
HOUGHTON       CLEAR     54  41  61 W20G32    29.67R
COPPER HARBOR    N/A     59  40  49 NW20G36   29.63R
IRONWOOD       CLEAR     52  45  76 W12       29.77R
$$

ABBREVIATIONS USED IN REMARKS
   TC - TEMPERATURE IN CELSIUS
  WCI - WIND CHILL INDEX
   HX - HEAT INDEX
  VSB - VISIBILITY




USA.gov is the U.S. government's official web portal to all federal, state and local government web resources and services.